Regional Weather Roundup
Issued by NWS Portland, ME

Current Version | Previous Version | Text Only | Print | Product List | Glossary Off
Versions: 1 2 3 4 5 6 7 8 9 10 11 12 13 14 15 16 17 18 19 20 21 22 23 24 25 26 27 28 29 30 31 32 33 34 35 36 37 38 39 40 41 42 43 44 45 46 47 48 49 50
000 ASUS41 KGYX 291710 RWRGYX WEATHER ROUNDUP FOR MAINE AND NEW HAMPSHIRE NATIONAL WEATHER SERVICE GRAY ME 100 PM EDT SAT AUG 29 2015 MEZ002-005-006-010-012-015-018-020-021-024-026-027-029-291800- MAINE CITY SKY/WX TMP DP RH WIND PRES REMARKS PORTLAND PTSUNNY 74 57 55 S8 30.15F SANFORD SUNNY 79 54 41 S3 30.15F BAR HARBOR PTSUNNY 73 61 64 S9 30.12F WISCASSET MOSUNNY 77 58 51 VRB7 30.15F ROCKLAND PTSUNNY 72 57 60 S7 30.13S FRYEBURG MOSUNNY 76 64 66 SE5 30.14F LEWISTONAUBURN MOSUNNY 77 N/A N/A SW8 30.14F AUGUSTA MOSUNNY 74 59 59 VRB5 30.13F WATERVILLE PTSUNNY 75 57 53 SW9 30.10F BANGOR CLOUDY 74 56 53 SW6 30.12F GREENVILLE N/A 68 55 63 CALM 30.12F MILLINOCKET MOSUNNY 73 57 57 VRB6 30.11F HOULTON SUNNY 73 55 53 SW12G18 30.07F PRESQUE ISLE PTSUNNY 72 54 53 W8 30.06F FRENCHVILLE MOSUNNY 71 56 58 W12G20 30.04F CARIBOU PTSUNNY 72 56 57 SW10 30.05F $$ NHZ002-005-008-009-011-012-014-291800- NEW HAMPSHIRE CITY SKY/WX TMP DP RH WIND PRES REMARKS PORTSMOUTH PTSUNNY 79 56 46 VRB1 30.14F ROCHESTER SUNNY 79 58 48 VRB3 30.14F NASHUA MOSUNNY 77 56 48 CALM 30.15F MANCHESTER PTSUNNY 77 55 46 CALM 30.14F CONCORD SUNNY 77 56 48 S6 30.15F LACONIA SUNNY 75 55 50 CALM 30.13F PLYMOUTH FAIR 76 57 51 W3 30.13F BERLIN SUNNY 74 56 53 VRB3 30.15F WHITEFIELD SUNNY 73 56 54 VRB3 30.16F JAFFREY MOSUNNY 74 52 46 VRB3 30.19F KEENE MOSUNNY 75 55 50 S6 30.17F LEBANON MOSUNNY 74 56 53 VRB3 30.15F MT WASHINGTON MOSUNNY 52 43 71 SW13 N/A $$ VTZ005-007-008-291800- VERMONT CITY SKY/WX TMP DP RH WIND PRES REMARKS ST JOHNSBURY N/A 72 56 57 MISG 30.13F MONTPELIER PTSUNNY 72 56 57 CALM 30.20F BURLINGTON PTSUNNY 74 55 51 SW6 30.13F $$ MAZ007-012-024-CTZ003-RIZ002-NYZ038-NYZ072-291800- SOUTHERN NEW ENGLAND AND NY CITY SKY/WX TMP DP RH WIND PRES REMARKS BOSTON MOSUNNY 79 54 41 W10G18 30.15F WORCESTER SUNNY 72 51 47 W6 30.20F NANTUCKET SUNNY 78 60 53 SW13 30.20S PROVIDENCE PTSUNNY 79 54 41 SW10G17 30.18F HARTFORD PTSUNNY 80 55 42 W9 30.17F ALBANY PTSUNNY 77 57 50 SE5 30.17F NEW YORK CITY PTSUNNY 82 53 36 NW13 30.17F $$ ANZ081-ANZ082-ANZ150-NHZ014-MEZ023>029-291800- COASTAL MARINE OBSERVATIONS STATION/POSITION TIME TEMP WIND PRES WAVE AIR SEA DIR/SP/G HT/PER (UTC) (F) (DEG/KT/KT) (MB) (FT/S) MOUNT DESERT ROC 1700 64 170/ 7/ 7 1020.9F MATINICUS ROCK 1700 65 170/ 7/ 7 1020.6F ISLE OF SHOALS 1700 68 140/ 6/ 6 1020.6F JEFFREYS LEDGE 1603 70 N/A 3/11 CASHES LEDGE BUO 1650 68 1021.0F 3/10 GEORGES BANK BUO 1650 70 71 270/ 4/ 6 1022.7S 3/ 9 $$ .............KEY.............. WCI - WIND CHILL TC - TEMPERATURE IN CELSIUS VSB - VISIBILITY IN MILES HX - HEAT INDEX FAIR- INDICATES FEW OR NO CLOUDS BELOW 12,000 FT, WITH NO SIGNIFICANT WEATHER AND/OR OBSTRUCTIONS TO VISIBILITY.

USA.gov is the U.S. government's official web portal to all federal, state and local government web resources and services.